This demonstration page uses our WeatherBlox Daily Observations layout. Learn more.

Left ArrowRight Arrow

39.95238, -75.16362

Hourly Observations for April 16, 2022

Temp ( °F °C ) Dew Point ( °F °C ) Humidity (%) Winds ( mph kmh ) Pressure ( in mb ) Visibility ( mi km ) Precip ( " mm )
12:54 am 00:54 Mostly Cloudy 57 13.9 33 0.6 41 41 SW 15 24 30.07 1018 10 16 0.00 0.00
1:54 am 01:54 Mostly Cloudy 57 13.9 34 1.1 42 42 SSW 14 22 30.06 1018 10 16 0.00 0.00
2:54 am 02:54 Mostly Cloudy 56 13.3 34 1.1 44 44 SSW 14 22 30.03 1017 10 16 0.00 0.00
3:54 am 03:54 Cloudy 56 13.3 34 1.1 44 44 SSW 12 19 30.02 1017 10 16 0.00 0.00
4:54 am 04:54 Cloudy 55 12.8 34 1.1 45 45 SSW 10 17 30.01 1016 10 16 0.00 0.00
5:54 am 05:54 Cloudy 55 12.8 35 1.7 47 47 SSW 9 15 29.99 1016 10 16 0.00 0.00
6:54 am 06:54 Cloudy 56 13.3 35 1.7 46 46 SSW 8 13 30.00 1016 10 16 0.00 0.00
7:54 am 07:54 Cloudy 57 13.9 36 2.2 45 45 SSW 7 11 30.03 1017 10 16 0.00 0.00
8:54 am 08:54 Mostly Cloudy 59 15 38 3.3 46 46 SW 12 19 30.01 1016 10 16 0.00 0.00
9:54 am 09:54 Mostly Cloudy 63 17.2 38 3.3 40 40 WSW 16 26 30.00 1016 10 16 0.00 0.00
10:54 am 10:54 Mostly Cloudy 66 18.9 40 4.4 39 39 SW 10 17 29.98 1015 10 16 0.00 0.00
11:54 am 11:54 Mostly Cloudy 67 19.4 43 6.1 42 42 SW 10 17 29.95 1014 10 16 0.00 0.00
12:54 pm 12:54 Mostly Cloudy 70 21.1 42 5.6 37 37 SW 10 17 29.90 1013 10 16 0.00 0.00
1:54 pm 13:54 Mostly Cloudy 71 21.7 43 6.1 36 36 SSW 10 17 29.87 1012 10 16 0.00 0.00
2:54 pm 14:54 Mostly Cloudy 73 22.8 41 5 32 32 SW 10 17 29.80 1009 10 16 0.00 0.00
3:54 pm 15:54 Partly Cloudy 74 23.3 43 6.1 33 33 WSW 12 19 29.77 1008 10 16 0.00 0.00
4:54 pm 16:54 Partly Cloudy 75 23.9 41 5 29 29 SSW 15 24 29.76 1008 10 16 0.00 0.00
5:54 pm 17:54 Partly Cloudy 73 22.8 42 5.6 33 33 SW 10 17 29.75 1008 10 16 0.00 0.00
6:54 pm 18:54 Mostly Cloudy 71 21.7 42 5.6 35 35 WSW 12 19 29.74 1007 10 16 0.00 0.00
7:54 pm 19:54 Mostly Cloudy 66 18.9 48 8.9 52 52 NNW 9 15 29.79 1009 10 16 0.00 0.00
8:00 pm 20:00 Mostly Cloudy with Thunderstorms 65 18.3 48 8.9 54 54 NNW 10 17 29.79 1009 10 16 0.00 0.00
8:54 pm 20:54 Cloudy with Thunderstorms 58 14.4 49 9.4 72 72 N 12 19 29.88 1012 10 16 0.00 0.00
9:09 pm 21:09 Cloudy with Light Rain 56 13.3 49 9.4 77 77 N 15 24 29.88 1012 10 16 0.00 0.00
9:54 pm 21:54 Cloudy 52 11.1 45 7.2 77 77 N 15 24 29.90 1013 10 16 0.00 0.00
10:09 pm 22:09 Cloudy with Thunderstorms 52 11.1 45 7.2 77 77 N 15 24 29.94 1014 10 16 0.00 0.00
10:30 pm 22:30 Cloudy with Light Rain 52 11.1 45 7.2 77 77 N 12 19 29.92 1013 10 16 0.00 0.00
10:54 pm 22:54 Cloudy with Light Rain 51 10.6 45 7.2 80 80 N 10 17 29.93 1013 10 16 0.00 0.00
11:54 pm 23:54 Cloudy with Light Rain 52 11.1 45 7.2 77 77 N 10 17 29.94 1014 10 16 0.00 0.00

Powered by AerisWeather